Simultaneous Nadir Overpasses (SNOs) Predictions

Prediction of SNOs between GOES-16 and METOP-C Satellite Orbit:

Table of predicted SNOs for the next 14.0 days since TLE Epoch: 11/22/2020
Index Date Time (GOES-16) GOES-16 Lat,Lon METOP-C Lat,Lon Distance(km) Time Diff (sec)
1 11/22/2020 02:44:12 0.03, -75.14 -0.57, -77.73 295.58 80
2 11/23/2020 02:20:54 0.03, -75.14 0.56, -72.74 273.62 80
3 11/24/2020 14:39:47 -0.03, -75.18 0.46, -77.31 243.17 80
4 11/25/2020 14:21:49 -0.02, -75.18 -0.67, -72.32 326.55 80
5 11/27/2020 02:40:49 0.02, -75.17 -0.36, -76.91 198.22 80
6 11/28/2020 02:17:31 0.02, -75.18 0.77, -71.92 371.71 80
7 11/29/2020 14:36:24 -0.02, -75.21 0.25, -76.48 144.18 80
8 11/30/2020 14:18:24 -0.01, -75.22 -0.83, -71.48 426.06 80
9 12/02/2020 02:37:25 0.01, -75.22 -0.21, -76.07 98.13 80
10 12/03/2020 02:14:06 0.00, -75.23 0.93, -71.08 472.16 80
11 12/04/2020 14:33:00 0.00, -75.27 0.08, -75.65 43.22 80
